Location: Morosaglia
(42.4360°N, 9.3069°E)
Time: 18:28:00
(UTC+00:00)

IRS-P3 - Pass Details

Date: 07 June 2020
Orbit: 813 x 820 km, 98.8° (Epoch: 06 July)

Event Time Altitude Azimuth Distance (km) Brightness Sun altitude
Rises 01:58:11 0° 13° (NNE) 3,349 8.6 -15.5°
Reaches altitude 10° 02:00:32 10° 13° (NNE) 2,412 7.6 -15.2°
Maximum altitude 02:05:53 86° 284° (WNW) 821 4.1 -14.6°
Enters shadow 02:09:52 18° 197° (SSW) 1,882 5.5 -14.1°
